Location: Kershaw
(34.5481°N, 80.5823°W)
Time: 10:53:07
(UTC+00:00)

Altair - Pass Details

Date: 08 October 2022
Orbit: 1501 x 1682 km, 47.2° (Epoch: 30 November)

Event Time Altitude Azimuth Distance (km) Brightness Sun altitude
Rises 12:29:04 0° 294° (WNW) 4,823 9.5 12.6°
Reaches altitude 10° 12:32:26 10° 301° (WNW) 3,861 9.1 13.3°
Maximum altitude 12:41:43 42° 10° (N) 2,240 8.5 15.1°
Drops below altitude 10° 12:51:10 10° 79° (E) 3,942 10.8 16.9°
Sets 12:54:39 0° 86° (E) 4,932 11.4 17.6°
